Location: Unspecified
(43.3830°N, 0.0000°E)
Time: 01:40:59
(UTC+00:00)

Transit 2A - Pass Details

Date: 25 June 2019
Orbit: 600 x 959 km, 66.7° (Epoch: 14 October)

Event Time Altitude Azimuth Distance (km) Brightness Sun altitude
Exits shadow 22:14:20 25° 121° (ESE) 1,812 7.4 -18.7°
Maximum altitude 22:15:15 26° 107° (ESE) 1,775 7.5 -18.8°
Drops below altitude 10° 22:20:19 10° 54° (NE) 2,668 8.9 -19.2°
Sets 22:23:12 0° 42° (NE) 3,586 9.8 -19.4°
